Powrót do katalogu

CZ-3C DEB

LostGTO
NORAD 44527·DEBRIS·🇨🇳 China

Wystrzelony Oct 31, 2010 z Xichang Satellite Launch Center

Loading…

TLE

NieaktualneSource: Space-Track

Epoka: May 30, 2026, 19:19 UTC

1 44527U 10057BM  26150.80542836 -.00000159  00000-0  54309-3 0  9995
2 44527  20.4529  69.7559 7179733 213.8543  66.5398  2.23731052 78029

Śledź CZ-3C DEB w czasie rzeczywistym z AllMySat

Download on the App Store